Content
SEND FEEDBACK

Daily
Averages
Monthly
Summary
Mexico

JAVIER ROJO GÓMEZ, QUINTANA ROO


Home > North America > Mexico > Quintana Roo
Elevation: 121 feet     Latitude: 18 17N     Longitude: 088 38W

WEATHER
 
SELECT A DAY
Number of Records: 122,454;   Date Range: 1/1/95 - 9/15/14
 
SHARE

PRINT THIS DATA

[ ← Previous Day ]
WEATHER ALMANAC - APRIL 7, 2014
[ Next Day → ]
[ °C ]   °F
Weather ElementAverageHighLow
Temperature85 °F91 °F (12:50 pm)82 °F (3:50 am)
Dewpoint76.2 °F78 °F (9:50 am)75 °F (6:50 am)
Humidity73.1 %84 % (8:45 pm)53 % (3:50 pm)
Barometer29.76 in29.96 in (6:40 am)29.69 in (3:44 pm)
Wind Speed12.5 mph23 mph (12:40 pm)
Weather ElementAverage
Visibility6.6 mi
Wind DirectionESE (100.5 °)

Weather ElementTotal
Precipitation---
Cooling Degree Days21.5 (Base 65)
Growing Degree Days36.5 (Base 50)
Averaged from 22 records on April 7, 2014
WEATHER CONDITIONS BREAKOUT
WIND DIRECTION BREAKOUT
WEATHER BY HOUR - APRIL 7, 2014
[ °C ]   °F
Local TimeTemperatureDewpointHumidityBarometerVisibilityWind DirectionWind SpeedGust SpeedPrecipitationEventsConditions
3:50 AM82.0 °F76.0 °F76 %29.76 in5.0 miESE (110°)8.9 mphPartly Cloudy
6:40 AM82.4 °F75.2 °F79 %29.96 in7.0 miEast (90°)17.3 mphMostly Cloudy
6:50 AM82.0 °F75.0 °F74 %29.78 in6.0 miEast (100°)11.2 mphPartly Cloudy
7:40 AM82.4 °F75.2 °F79 %29.76 in7.0 miEast (90°)20.7 mphScattered Clouds
8:44 AM82.4 °F75.2 °F79 %29.78 in7.0 miEast (100°)17.3 mphScattered Clouds
9:45 AM84.2 °F75.2 °F74 %29.80 in7.0 miEast (90°)11.5 mphScattered Clouds
9:50 AM86.0 °F78.0 °F73 %29.81 in6.0 miESE (110°)8.9 mphPartly Cloudy
10:40 AM84.2 °F75.2 °F74 %29.78 in7.0 miEast (100°)11.5 mphScattered Clouds
11:40 AM84.2 °F75.2 °F74 %29.76 in7.0 miEast (90°)17.3 mphPartly Cloudy
12:40 PM86.0 °F77.0 °F74 %29.75 in7.0 miEast (100°)23.0 mphPartly Cloudy
12:50 PM91.0 °F77.0 °F56 %29.77 in6.0 miEast (90°)11.2 mphScattered Clouds
1:44 PM86.0 °F77.0 °F74 %29.72 in7.0 miEast (90°)11.5 mphPartly Cloudy
2:44 PM86.0 °F77.0 °F74 %29.71 in7.0 miEast (90°)11.5 mphPartly Cloudy
3:44 PM86.0 °F77.0 °F74 %29.69 in7.0 miEast (90°)11.5 mphPartly Cloudy
3:50 PM90.0 °F75.0 °F53 %29.71 in6.0 miEast (90°)8.9 mph
4:44 PM86.0 °F77.0 °F74 %29.69 in7.0 miESE (120°)11.5 mphPartly Cloudy
6:10 PM86.0 °F77.0 °F74 %29.69 in7.0 miESE (120°)11.5 mphPartly Cloudy
6:45 PM86.0 °F77.0 °F74 %29.71 in7.0 miESE (120°)11.5 mphScattered Clouds
6:50 PM85.0 °F75.0 °F66 %29.72 in6.0 miEast (90°)8.9 mphOvercast
7:45 PM86.0 °F77.0 °F74 %29.72 in7.0 miESE (120°)11.5 mphMostly Cloudy
8:45 PM82.4 °F77.0 °F84 %29.76 in7.0 miESE (120°)11.5 mphMostly Cloudy
9:50 PM83.0 °F76.0 °F75 %29.80 in5.0 miEast (90°)6.7 mphScattered Clouds
Hourly data recorded from MMCM, located miles away from Javier Rojo Gómez, Quintana Roo







STORIES FROM OUR PARTNERS